DW7229 Weather Reports


Display with metric or nautical units.
time (UTC)temp
F
wind
direction
speed
MPH
gust
MPH
rain 1hr
in
rain 24hr
in
rain mn
in
humidity
%
barometer
mb
20260509131022 52 0.0 0.0 0.00 0.00 0.00 54 1014.6
20260509130019 52 0.0 0.0 0.00 0.00 0.00 59 1014.7
20260509125017 51 0.0 0.0 0.00 0.00 0.00 63 1014.8
20260509124032 50 0.0 0.0 0.00 0.00 0.00 63 1014.8
20260509123017 50 0.0 0.0 0.00 0.00 0.00 64 1014.8
20260509122020 49 0.0 0.0 0.00 0.00 0.00 66 1014.6
20260509121023 48 0.0 0.0 0.00 0.00 0.00 66 1014.7
20260509120027 47 0.0 0.0 0.00 0.00 0.00 68 1014.7
20260509115030 46 0.0 0.0 0.00 0.00 0.00 69 1014.8
20260509114015 45 0.0 0.0 0.00 0.00 0.00 70 1014.8
20260509113059 45 0.0 0.0 0.00 0.00 0.00 72 1014.8
20260509112022 44 0.0 0.0 0.00 0.00 0.00 73 1014.9
20260509111025 42 0.0 0.0 0.00 0.00 0.00 73 1014.8
20260509110029 41 0.0 0.0 0.00 0.00 0.00 74 1014.8
20260509105112 40 0.0 0.0 0.00 0.00 0.00 75 1014.8
20260509104037 39 0.0 0.0 0.00 0.00 0.00 75 1014.8
20260509103021 39 0.0 0.0 0.00 0.00 0.00 75 1014.7
20260509102023 38 0.0 0.0 0.00 0.00 0.00 76 1014.5
20260509101027 37 0.0 0.0 0.00 0.00 0.00 76 1014.4
20260509100030 36 0.0 0.0 0.00 0.00 0.00 76 1014.2
20260509095035 35 0.0 0.0 0.00 0.00 0.00 76 1014.1
20260509094039 35 0.0 0.0 0.00 0.00 0.00 76 1014.1
20260509093022 35 0.0 0.0 0.00 0.00 0.00 76 1014.2
20260509092019 34 0.0 0.0 0.00 0.00 0.00 76 1014.1
20260509091016 35 0.0 0.0 0.00 0.00 0.00 76 1015.4
20260509090032 35 0.0 0.0 0.00 0.00 0.00 76 1013.9
20260509085016 35 0.0 0.0 0.00 0.00 0.00 75 1013.7
20260509084020 35 0.0 0.0 0.00 0.00 0.00 75 1013.7
20260509083023 35 0.0 0.0 0.00 0.00 0.00 75 1013.7
20260509082027 35 0.0 0.0 0.00 0.00 0.00 75 1013.7
20260509081030 36 0.0 0.0 0.00 0.00 0.00 75 1013.7
20260509080015 35 0.0 0.0 0.00 0.00 0.00 74 1013.8
20260509075039 36 0.0 0.0 0.00 0.00 0.00 74 1013.6
20260509074022 36 0.0 0.0 0.00 0.00 0.00 74 1013.5
20260509073045 36 0.0 0.0 0.00 0.00 0.00 74 1013.5
20260509072049 36 0.0 0.0 0.00 0.00 0.00 73 1013.5
20260509071032 37 0.0 0.0 0.00 0.00 0.00 73 1013.4
20260509070017 36 0.0 0.0 0.00 0.00 0.00 72 1013.6
20260509065020 37 0.0 0.0 0.00 0.00 0.00 72 1013.7
20260509064023 37 0.0 0.0 0.00 0.00 0.00 72 1013.7
20260509063027 37 0.0 0.0 0.00 0.00 0.00 71 1013.7
20260509062030 37 0.0 0.0 0.00 0.00 0.00 70 1013.7
20260509061015 38 0.0 0.0 0.00 0.00 0.00 71 1013.6
20260509060018 38 0.0 0.0 0.00 0.00 0.00 70 1013.6
20260509055022 39 0.0 0.0 0.00 0.00 0.00 70 1013.5
20260509054019 38 0.0 0.0 0.00 0.00 0.00 69 1013.5
20260509053017 39 0.0 0.0 0.00 0.00 0.00 69 1013.4
20260509052032 39 0.0 0.0 0.00 0.00 0.00 69 1013.4
20260509051017 39 0.0 0.0 0.00 0.00 0.00 69 1013.4
20260509050020 39 0.0 0.0 0.00 0.00 0.00 68 1013.4
20260509045024 39 0.0 0.0 0.00 0.00 0.00 68 1013.3
20260509044027 40 0.0 0.0 0.00 0.00 0.00 66 1013.3
20260509043030 40 0.0 0.0 0.00 0.00 0.00 65 1013.2
20260509042136 41 0.0 0.0 0.00 0.00 0.00 65 1013.2
20260509041019 41 0.0 0.0 0.00 0.00 0.00 64 1013.3
20260509040022 41 0.0 0.0 0.00 0.00 0.00 62 1013.1
20260509035025 42 0.0 0.0 0.00 0.00 0.00 61 1013.0
20260509034028 43 0.0 0.0 0.00 0.00 0.00 61 1013.0
20260509033032 43 0.0 0.0 0.00 0.00 0.00 59 1013.0
20260509032017 44 0.0 0.0 0.00 0.00 0.00 59 1012.8
20260509031020 44 0.0 0.0 0.00 0.00 0.00 58 1012.7
20260509030023 45 0.0 0.0 0.00 0.00 0.00 57 1012.6
20260509025026 45 0.0 0.0 0.00 0.00 0.00 56 1012.6
20260509024030 46 0.0 0.0 0.00 0.00 0.00 55 1012.5
20260509023015 47 0.0 0.0 0.00 0.00 0.00 53 1012.4
20260509022018 47 0.0 0.0 0.00 0.00 0.00 52 1012.5
20260509021022 48 0.0 0.0 0.00 0.00 0.00 49 1012.3
20260509020019 49 0.0 0.0 0.00 0.00 0.00 48 1012.0
20260509015017 50 0.0 0.0 0.00 0.00 0.00 47 1011.9
20260509014032 51 0.0 0.0 0.00 0.00 0.00 44 1011.7
20260509013057 51 0.0 0.0 0.00 0.00 0.00 43 1011.6
20260509012020 51 248 1.0 3.0 0.00 0.00 0.00 43 1011.4
20260509011023 51 265 1.0 7.0 0.00 0.00 0.00 42 1011.0
20260509010027 52 337 0.0 2.0 0.00 0.00 0.00 42 1010.8
20260509005030 52 261 1.0 4.0 0.00 0.00 0.00 42 1010.7
20260509004015 52 23 0.0 3.0 0.00 0.00 0.00 40 1010.5
20260509003039 53 0.0 0.0 0.00 0.00 0.00 39 1010.4
20260509002022 53 0.0 0.0 0.00 0.00 0.00 38 1010.2
20260509001025 53 254 1.0 5.0 0.00 0.00 0.00 37 1010.0
20260509000028 54 203 0.0 1.0 0.00 0.00 0.00 37 1009.8
20260508235032 55 0.0 0.0 0.00 0.00 0.00 36 1009.5
20260508234017 55 0.0 2.0 0.00 0.00 0.00 35 1009.4
20260508233040 56 45 0.0 1.0 0.00 0.00 0.00 34 1009.4
20260508232024 57 247 2.0 5.0 0.00 0.00 0.00 33 1009.1
20260508231027 57 90 1.0 3.0 0.00 0.00 0.00 32 1008.9
20260508230111 58 203 1.0 6.0 0.00 0.00 0.00 30 1009.0
20260508225015 59 254 1.0 3.0 0.00 0.00 0.00 30 1008.8
20260508224018 59 202 1.0 6.0 0.00 0.00 0.00 29 1008.8
20260508223022 61 297 1.0 4.0 0.00 0.00 0.00 28 1008.8
20260508222019 60 254 3.0 6.0 0.00 0.00 0.00 28 1008.7
20260508221017 62 300 3.0 7.0 0.00 0.00 0.00 27 1008.6
20260508220052 62 318 2.0 4.0 0.00 0.00 0.00 27 1008.6
20260508215017 62 212 2.0 5.0 0.00 0.00 0.00 27 1008.5
20260508214020 62 4 3.0 7.0 0.00 0.00 0.00 26 1008.5
20260508213044 63 345 1.0 3.0 0.00 0.00 0.00 26 1008.4
20260508212027 60 290 1.0 6.0 0.00 0.00 0.00 28 1008.4
20260508210015 61 305 3.0 7.0 0.00 0.00 0.00 26 1008.3
20260508205019 60 239 1.0 4.0 0.00 0.00 0.00 27 1008.3
20260508204022 60 255 5.0 8.0 0.00 0.00 0.00 26 1008.1
20260508203025 64 285 4.0 9.0 0.00 0.00 0.00 25 1008.0
20260508202029 62 288 3.0 6.0 0.00 0.00 0.00 26 1008.1
20260508201032 0 225 4.0 4.0 0.00 0.00 0.00 1008.0
20260508200017 62 224 4.0 9.0 0.00 0.00 0.00 26 1008.0
20260508195021 62 203 5.0 10.0 0.00 0.00 0.00 26 1008.0
20260508194024 63 273 6.0 9.0 0.00 0.00 0.00 25 1008.0
20260508193028 61 193 4.0 11.0 0.00 0.00 0.00 26 1008.1
20260508192030 59 239 3.0 6.0 0.00 0.00 0.00 27 1008.1
20260508191016 60 238 3.0 8.0 0.00 0.00 0.00 26 1008.1
20260508190019 61 240 4.0 9.0 0.00 0.00 0.00 26 1008.1
20260508185022 60 278 2.0 5.0 0.00 0.00 0.00 26 1008.1
20260508184019 59 303 3.0 7.0 0.00 0.00 0.00 27 1008.0
20260508183016 59 274 4.0 7.0 0.00 0.00 0.00 27 1007.9
20260508182032 59 262 3.0 7.0 0.00 0.00 0.00 29 1008.0
20260508181017 59 289 4.0 8.0 0.00 0.00 0.00 29 1008.1
20260508180020 59 345 3.0 8.0 0.00 0.00 0.00 30 1007.9
20260508175024 59 264 3.0 6.0 0.00 0.00 0.00 29 1008.1
20260508174027 59 188 4.0 6.0 0.00 0.00 0.00 31 1008.1
20260508173030 60 222 3.0 8.0 0.00 0.00 0.00 30 1008.1
20260508172015 61 305 3.0 8.0 0.00 0.00 0.00 30 1008.1
20260508171019 58 212 5.0 9.0 0.00 0.00 0.00 31 1008.0
20260508170022 59 237 3.0 8.0 0.00 0.00 0.00 29 1008.0
20260508165045 59 192 3.0 8.0 0.00 0.00 0.00 31 1007.9
20260508164029 59 217 4.0 8.0 0.00 0.00 0.00 30 1007.9
20260508163053 59 202 3.0 6.0 0.00 0.00 0.00 30 1008.0
20260508162037 60 277 3.0 6.0 0.00 0.00 0.00 28 1008.2
20260508161021 60 261 7.0 10.0 0.00 0.00 0.00 29 1008.4
20260508160024 59 348 3.0 7.0 0.00 0.00 0.00 28 1008.5
20260508155107 59 227 3.0 10.0 0.00 0.00 0.00 28 1008.5
20260508154030 59 296 3.0 9.0 0.00 0.00 0.00 31 1008.5
20260508153036 58 238 3.0 7.0 0.00 0.00 0.00 31 1008.5
20260508152019 57 333 2.0 6.0 0.00 0.00 0.00 32 1008.7
20260508151022 57 335 2.0 5.0 0.00 0.00 0.00 32 1008.6
20260508150019 57 284 5.0 8.0 0.00 0.00 0.00 32 1008.6
20260508145016 58 225 2.0 4.0 0.00 0.00 0.00 32 1008.7
20260508144032 58 251 5.0 10.0 0.00 0.00 0.00 31 1008.7
20260508143037 57 215 6.0 9.0 0.00 0.00 0.00 32 1008.7
20260508142020 58 253 6.0 11.0 0.00 0.00 0.00 32 1008.7
20260508141024 57 149 3.0 6.0 0.00 0.00 0.00 33 1008.9
20260508140027 56 141 4.0 13.0 0.00 0.00 0.00 34 1009.1
20260508135030 55 294 2.0 7.0 0.00 0.00 0.00 36 1009.1
20260508134015 54 274 4.0 7.0 0.00 0.00 0.00 37 1009.2
20260508133019 53 200 3.0 8.0 0.00 0.00 0.00 38 1009.1
20260508132022 53 275 3.0 7.0 0.00 0.00 0.00 40 1009.1